Flag for Germany Weather past 2 weeks in Kulmbach, Bavaria, Germany

Now
37 °F

Rain. Broken clouds.


Feels Like: 28 °F
Forecast: 37 / 50 °F
Wind: 17 mph from West

Location: Hof Airport

Current Time: Oct 22, 2014 at 5:41:54 PM

Latest Report: Oct 22, 2014 at 5:20 PM


Visibility: 3 mi

Pressure: 29.80 "Hg

Humidity: 87%

Dew point: 34 °F

Location of KulmbachLocation

Historic Weather in Kulmbach — Graph

°F

Kulmbach temperature yesterday

Maximum temperature yesterday: 54 °F (at 12:50 PM)
Minimum temperature yesterday: 41 °F (at 6:50 AM)
Average temperature yesterday: 50 °F

Past Weeks' High & Low Weather Summary

 TemperatureHumidityPressure
High73 °F (Oct 9, 3:20 PM)94% (Oct 10, 6:50 AM)30.27 "Hg (Oct 10, 6:50 AM)
Low36 °F (Oct 22, 8:20 AM)44% (Oct 9, 1:50 PM)29.59 "Hg (Oct 21, 7:20 PM)
Average56 °F80%29.92 "Hg
* Reported Oct 7 3:20 PM — Oct 22 3:50 PM, Kulmbach, Weather by CustomWeather, © 2014

Note: Actual official high and low records may vary slightly from our data, if they occured in-between our weather recording intervals... More about our weather records

Advertising

Kulmbach weather history for previous 24 hours

 ConditionsComfort  
Time TempWeatherWind HumidityBarometerVisibility
3:50 PM
Oct 22
39 °FRain. Broken clouds.18 mph87%29.77 "Hg4 mi
3:20 PM39 °FRain. Broken clouds.21 mph87%29.77 "Hg4 mi
2:50 PM39 °FRain. Broken clouds.17 mph93%29.77 "Hg4 mi
2:20 PM41 °FLight rain. Broken clouds.18 mph87%29.80 "Hg5 mi
1:50 PM41 °FLight rain. Broken clouds.17 mph87%29.80 "Hg4 mi
1:20 PM41 °FBroken clouds.17 mph87%29.80 "HgN/A
12:50 PM41 °FDrizzle. Partly sunny.20 mph87%29.80 "Hg6 mi
12:20 PM41 °FBroken clouds.17 mph87%29.80 "HgN/A
11:50 AM41 °FBroken clouds.20 mph87%29.80 "HgN/A
11:20 AM41 °FDrizzle. Broken clouds.21 mph87%29.80 "HgN/A
10:50 AM41 °FBroken clouds.16 mph87%29.80 "HgN/A
10:20 AM39 °FMore clouds than sun.13 mph87%29.80 "HgN/A
9:50 AM37 °FDrizzle. Broken clouds.15 mph93%29.80 "HgN/A
9:20 AM37 °FLight rain. Overcast.16 mph87%29.80 "Hg3 mi
8:50 AM36 °FLight rain. Overcast.12 mph93%29.77 "Hg4 mi
8:20 AM36 °FLight rain. Dense fog.18 mph93%29.77 "Hg2 mi
7:50 AM37 °FLight rain. Passing clouds.16 mph93%29.74 "Hg6 mi
7:20 AM39 °FLight rain. Mostly cloudy.15 mph87%29.74 "HgN/A
6:50 AM39 °FDrizzle. Mostly cloudy.16 mph87%29.74 "Hg4 mi
7:50 PM
Oct 21
50 °FPassing clouds.14 mph88%29.59 "Hg5 mi
7:20 PM50 °FDrizzle. Mostly cloudy.13 mph82%29.59 "HgN/A
6:50 PM50 °FPartly sunny.15 mph88%29.62 "HgN/A
6:20 PM50 °FCool.10 mph82%29.62 "HgN/A
5:50 PM50 °FLight rain. Passing clouds.17 mph82%29.62 "HgN/A
5:20 PM52 °FLight rain. Scattered clouds.18 mph77%29.65 "HgN/A
Weather by CustomWeather, © 2014

See weather overviewHow to use our weather pages